GW2929 Weather Reports


Display with metric or nautical units.
time (UTC)temp
F
wind
direction
speed
MPH
gust
MPH
rain 1hr
in
rain 24hr
in
rain mn
in
humidity
%
barometer
mb
20260905031252 85 204 2.0 2.0 0.00 0.00 0.00 86 1007.7
20260905030747 85 180 2.0 2.0 0.00 0.00 0.00 86 1007.9
20260905030242 85 215 2.0 2.0 0.00 0.00 0.00 86 1008.1
20260905025736 85 193 2.0 2.0 0.00 0.00 0.00 86 1008.0
20260905025232 85 210 2.0 3.0 0.00 0.00 0.00 86 1008.2
20260905024727 85 209 0.0 1.0 0.00 0.00 0.00 86 1007.9
20260905024224 85 216 0.0 0.0 0.00 0.00 0.00 86 1007.9
20260905023723 86 160 1.0 2.0 0.00 0.00 0.00 86 1007.7
20260905023218 86 184 2.0 2.0 0.00 0.00 0.00 86 1007.7
20260905022718 86 201 1.0 1.0 0.00 0.00 0.00 86 1007.7
20260905022213 86 109 0.0 1.0 0.00 0.00 0.00 86 1007.3
20260905021707 86 231 0.0 0.0 0.00 0.00 0.00 86 1007.4
20260905021203 86 265 2.0 3.0 0.00 0.00 0.00 85 1007.2
20260905020657 86 210 0.0 0.0 0.00 0.00 0.00 85 1007.0
20260905020152 86 227 0.0 1.0 0.00 0.00 0.00 85 1007.1
20260905015651 86 177 1.0 2.0 0.00 0.00 0.00 84 1007.3
20260905015145 86 219 0.0 0.0 0.00 0.00 0.00 84 1006.9
20260905014639 86 214 0.0 0.0 0.00 0.00 0.00 84 1006.8
20260905014134 86 202 1.0 2.0 0.00 0.00 0.00 84 1007.0
20260905013631 86 206 1.0 2.0 0.00 0.00 0.00 84 1007.2
20260905013126 86 219 1.0 2.0 0.00 0.00 0.00 84 1007.0
20260905012621 86 173 1.0 2.0 0.00 0.00 0.00 84 1006.9
20260905012117 86 251 2.0 3.0 0.00 0.00 0.00 83 1006.7
20260905011613 86 192 4.0 4.0 0.00 0.00 0.00 83 1006.8
20260905011108 86 210 1.0 2.0 0.00 0.00 0.00 83 1006.5
20260905010603 87 209 2.0 2.0 0.00 0.00 0.00 82 1006.6
20260905010059 87 199 2.0 3.0 0.00 0.00 0.00 82 1006.7
20260905005554 87 208 3.0 4.0 0.00 0.00 0.00 82 1006.7
20260905005049 87 189 2.0 2.0 0.00 0.00 0.00 82 1006.2
20260905004544 87 205 1.0 1.0 0.00 0.00 0.00 82 1006.5
20260905004039 87 172 2.0 3.0 0.00 0.00 0.00 81 1006.4
20260905003535 87 221 0.0 1.0 0.00 0.00 0.00 80 1006.4
20260905003030 87 222 2.0 2.0 0.00 0.00 0.00 80 1006.3
20260905002526 87 196 4.0 6.0 0.00 0.00 0.00 79 1006.2
20260905002020 88 147 1.0 2.0 0.00 0.00 0.00 80 1006.2
20260905001515 88 155 2.0 3.0 0.00 0.00 0.00 79 1006.2
20260905001015 88 241 1.0 1.0 0.00 0.00 0.00 78 1006.1
20260905000510 89 191 2.0 2.0 0.00 0.00 0.00 77 1006.3
20260905000006 88 211 0.0 1.0 0.00 0.00 0.00 78 1006.1
20260904235501 88 202 3.0 4.0 0.00 0.00 0.00 78 1006.0
20260904235001 88 156 5.0 9.0 0.00 0.00 0.00 77 1006.2
20260904234501 89 330 2.0 4.0 0.00 0.00 0.00 77 1006.2
20260904233957 89 223 3.0 6.0 0.00 0.00 0.00 76 1006.2
20260904233452 89 89 1.0 2.0 0.00 0.00 0.00 76 1006.1
20260904232948 89 183 1.0 2.0 0.00 0.00 0.00 75 1006.2
20260904232444 89 211 1.0 1.0 0.00 0.00 0.00 75 1006.3
20260904231941 89 196 3.0 4.0 0.00 0.00 0.00 74 1006.2
20260904231436 90 351 3.0 8.0 0.00 0.00 0.00 71 1006.2
20260904230931 90 207 2.0 3.0 0.00 0.00 0.00 72 1006.7
20260904230429 90 228 2.0 4.0 0.00 0.00 0.00 72 1006.7
20260904225924 90 206 2.0 2.0 0.00 0.00 0.00 72 1006.3
20260904225422 90 250 3.0 4.0 0.00 0.00 0.00 75 1006.4
20260904224917 90 171 6.0 9.0 0.00 0.00 0.00 74 1006.4
20260904224413 91 158 5.0 8.0 0.00 0.00 0.00 71 1006.4
20260904223912 91 171 4.0 6.0 0.00 0.00 0.00 70 1006.5
20260904223412 91 197 2.0 3.0 0.00 0.00 0.00 71 1006.4
20260904222908 91 214 2.0 3.0 0.00 0.00 0.00 72 1006.5
20260904222403 91 209 2.0 4.0 0.00 0.00 0.00 72 1006.3
20260904221902 91 273 5.0 7.0 0.00 0.00 0.00 72 1006.4
20260904221357 91 182 2.0 3.0 0.00 0.00 0.00 70 1006.6
20260904220853 92 210 1.0 1.0 0.00 0.00 0.00 70 1006.6
20260904220352 92 221 4.0 7.0 0.00 0.00 0.00 69 1006.6
20260904215848 93 9 3.0 6.0 0.00 0.00 0.00 68 1006.6
20260904215342 92 238 2.0 3.0 0.00 0.00 0.00 69 1006.4
20260904214838 92 196 3.0 4.0 0.00 0.00 0.00 70 1006.5
20260904214334 92 180 1.0 2.0 0.00 0.00 0.00 69 1006.6
20260904213832 93 198 2.0 4.0 0.00 0.00 0.00 68 1006.5
20260904213327 93 350 3.0 6.0 0.00 0.00 0.00 69 1006.6
20260904212824 93 225 2.0 3.0 0.00 0.00 0.00 68 1006.3
20260904212323 93 354 3.0 3.0 0.00 0.00 0.00 67 1006.5
20260904211819 93 206 2.0 3.0 0.00 0.00 0.00 67 1006.4
20260904211314 93 225 2.0 3.0 0.00 0.00 0.00 69 1006.6
20260904210808 93 206 4.0 6.0 0.00 0.00 0.00 67 1006.3
20260904210302 93 228 2.0 2.0 0.00 0.00 0.00 68 1006.7
20260904205758 93 267 1.0 2.0 0.00 0.00 0.00 68 1006.7
20260904205254 92 211 2.0 3.0 0.00 0.00 0.00 69 1006.5
20260904204745 92 213 2.0 2.0 0.00 0.00 0.00 68 1006.9
20260904204241 92 196 3.0 3.0 0.00 0.00 0.00 71 1006.8
20260904203737 91 273 3.0 6.0 0.00 0.00 0.00 72 1006.9
20260904203233 92 222 2.0 2.0 0.00 0.00 0.00 72 1006.9
20260904202729 93 255 3.0 3.0 0.00 0.00 0.00 71 1006.9
20260904202225 94 275 3.0 4.0 0.00 0.00 0.00 70 1007.1
20260904201720 93 224 2.0 3.0 0.00 0.00 0.00 69 1007.0
20260904201220 94 206 1.0 2.0 0.00 0.00 0.00 68 1007.1
20260904200715 95 221 2.0 4.0 0.00 0.00 0.00 67 1007.0
20260904200209 96 178 2.0 3.0 0.00 0.00 0.00 62 1006.9
20260904195708 96 215 2.0 2.0 0.00 0.00 0.00 65 1007.2
20260904195201 96 239 3.0 7.0 0.00 0.00 0.00 62 1007.3
20260904194656 96 216 2.0 2.0 0.00 0.00 0.00 63 1007.1
20260904194150 94 241 1.0 2.0 0.00 0.00 0.00 68 1007.1
20260904193645 95 172 2.0 3.0 0.00 0.00 0.00 63 1007.3
20260904193142 95 205 2.0 2.0 0.00 0.00 0.00 64 1007.3
20260904192641 95 89 2.0 3.0 0.00 0.00 0.00 61 1007.3
20260904192137 95 208 2.0 2.0 0.00 0.00 0.00 64 1007.2
20260904191634 95 206 4.0 7.0 0.00 0.00 0.00 64 1007.3
20260904191130 96 209 1.0 2.0 0.00 0.00 0.00 61 1007.4
20260904190625 95 220 2.0 3.0 0.00 0.00 0.00 62 1007.5
20260904190121 95 213 3.0 4.0 0.00 0.00 0.00 61 1007.4
20260904185618 96 192 3.0 4.0 0.00 0.00 0.00 62 1007.6
20260904185112 95 157 5.0 8.0 0.00 0.00 0.00 60 1007.7
20260904184611 96 54 2.0 3.0 0.00 0.00 0.00 58 1007.8
20260904184107 97 256 4.0 6.0 0.00 0.00 0.00 59 1007.8
20260904183603 97 173 4.0 6.0 0.00 0.00 0.00 58 1007.8
20260904183057 97 193 2.0 3.0 0.00 0.00 0.00 57 1007.8
20260904182553 96 122 3.0 4.0 0.00 0.00 0.00 58 1007.9
20260904182052 97 238 2.0 3.0 0.00 0.00 0.00 60 1008.0
20260904181548 96 211 0.0 1.0 0.00 0.00 0.00 58 1007.9
20260904181042 96 186 1.0 2.0 0.00 0.00 0.00 60 1007.8
20260904180537 96 195 1.0 2.0 0.00 0.00 0.00 59 1008.1
20260904180032 96 270 2.0 3.0 0.00 0.00 0.00 58 1008.0
20260904175526 96 211 2.0 2.0 0.00 0.00 0.00 57 1007.9
20260904175024 96 215 2.0 3.0 0.00 0.00 0.00 56 1008.0
20260904174519 97 228 3.0 4.0 0.00 0.00 0.00 56 1008.2
20260904174016 97 231 3.0 4.0 0.00 0.00 0.00 57 1008.1
20260904173511 97 163 5.0 8.0 0.00 0.00 0.00 57 1008.1
20260904173007 97 214 1.0 1.0 0.00 0.00 0.00 57 1008.2
20260904172503 96 9 2.0 3.0 0.00 0.00 0.00 59 1008.2
20260904172001 94 215 1.0 2.0 0.00 0.00 0.00 62 1008.2
20260904171457 96 215 1.0 2.0 0.00 0.00 0.00 58 1008.4
20260904170952 96 233 2.0 2.0 0.00 0.00 0.00 58 1008.5
20260904170447 96 186 2.0 3.0 0.00 0.00 0.00 59 1008.6
20260904165943 96 248 2.0 2.0 0.00 0.00 0.00 59 1008.6
20260904165442 96 344 2.0 2.0 0.00 0.00 0.00 59 1008.4
20260904164941 95 225 1.0 1.0 0.00 0.00 0.00 61 1008.5
20260904164436 95 148 1.0 1.0 0.00 0.00 0.00 61 1008.6
20260904163933 95 189 1.0 1.0 0.00 0.00 0.00 60 1008.5
20260904163432 94 212 1.0 2.0 0.00 0.00 0.00 62 1008.5
20260904162932 93 213 5.0 10.0 0.00 0.00 0.00 64 1008.7
20260904162427 94 116 2.0 2.0 0.00 0.00 0.00 63 1008.9
20260904161922 94 217 1.0 1.0 0.00 0.00 0.00 63 1008.8
20260904161418 95 221 1.0 2.0 0.00 0.00 0.00 62 1008.6
20260904160914 94 201 2.0 3.0 0.00 0.00 0.00 63 1008.9
20260904160408 94 224 1.0 2.0 0.00 0.00 0.00 63 1008.5
20260904155903 93 188 3.0 3.0 0.00 0.00 0.00 64 1008.4
20260904155358 94 213 3.0 3.0 0.00 0.00 0.00 64 1008.5
20260904154856 95 178 4.0 4.0 0.00 0.00 0.00 61 1008.4
20260904154351 95 165 2.0 2.0 0.00 0.00 0.00 60 1008.5
20260904153847 93 156 2.0 4.0 0.00 0.00 0.00 64 1008.5
20260904153342 93 203 2.0 2.0 0.00 0.00 0.00 65 1008.4
20260904152838 93 223 0.0 1.0 0.00 0.00 0.00 65 1008.5
20260904152332 92 203 1.0 2.0 0.00 0.00 0.00 66 1008.4
20260904151827 93 211 1.0 1.0 0.00 0.00 0.00 67 1008.5
20260904151327 92 210 1.0 1.0 0.00 0.00 0.00 67 1008.4
20260904150823 92 194 1.0 1.0 0.00 0.00 0.00 69 1008.4
20260904150318 91 220 1.0 2.0 0.00 0.00 0.00 69 1008.2
20260904145815 91 218 2.0 3.0 0.00 0.00 0.00 72 1008.1
20260904145312 91 161 2.0 3.0 0.00 0.00 0.00 72 1008.2
20260904144807 91 191 1.0 1.0 0.00 0.00 0.00 73 1008.3
20260904144303 91 140 2.0 2.0 0.00 0.00 0.00 72 1008.1
20260904143758 89 163 0.0 1.0 0.00 0.00 0.00 75 1008.2
20260904143255 89 177 3.0 3.0 0.00 0.00 0.00 75 1008.2
20260904142751 89 201 2.0 2.0 0.00 0.00 0.00 77 1007.9
20260904142247 88 207 0.0 1.0 0.00 0.00 0.00 79 1008.0
20260904141746 88 197 1.0 2.0 0.00 0.00 0.00 80 1007.9
20260904141242 87 201 2.0 3.0 0.00 0.00 0.00 83 1008.0
20260904140737 87 198 2.0 3.0 0.00 0.00 0.00 84 1007.9
20260904140233 87 44 2.0 4.0 0.00 0.00 0.00 85 1007.8
20260904135731 86 193 4.0 4.0 0.00 0.00 0.00 85 1007.6
20260904135227 86 194 0.0 0.0 0.00 0.00 0.00 87 1007.6
20260904134723 86 188 3.0 4.0 0.00 0.00 0.00 88 1007.6
20260904134222 85 208 0.0 0.0 0.00 0.00 0.00 90 1007.7
20260904133717 85 216 1.0 1.0 0.00 0.00 0.00 90 1007.8
20260904133214 85 180 1.0 3.0 0.00 0.00 0.00 91 1007.7
20260904132712 84 216 0.0 0.0 0.00 0.00 0.00 92 1007.9
20260904132208 84 201 1.0 2.0 0.00 0.00 0.00 93 1007.8
20260904131707 83 205 1.0 2.0 0.00 0.00 0.00 93 1007.8
20260904131202 83 42 1.0 1.0 0.00 0.00 0.00 94 1007.5
20260904130657 83 193 0.0 0.0 0.00 0.00 0.00 94 1007.8
20260904130156 83 202 0.0 0.0 0.00 0.00 0.00 94 1007.6
20260904125653 83 224 1.0 2.0 0.00 0.00 0.00 94 1007.7
20260904125148 83 174 2.0 3.0 0.00 0.00 0.00 95 1007.8
20260904124643 82 227 0.0 0.0 0.00 0.00 0.00 95 1007.8
20260904124138 82 211 0.0 1.0 0.00 0.00 0.00 95 1007.9
20260904123633 82 217 0.0 0.0 0.00 0.00 0.00 96 1007.8
20260904123128 82 221 0.0 0.0 0.00 0.00 0.00 96 1007.8
20260904122623 82 215 0.0 0.0 0.00 0.00 0.00 96 1007.7
20260904122118 82 225 0.0 0.0 0.00 0.00 0.00 95 1007.6
20260904121614 82 215 0.0 0.0 0.00 0.00 0.00 95 1007.4
20260904121109 82 214 0.0 0.0 0.00 0.00 0.00 95 1007.4
20260904120605 82 196 1.0 2.0 0.00 0.00 0.00 95 1007.6
20260904115555 82 211 0.0 0.0 0.00 0.00 0.00 95 1007.3
20260904115050 82 217 0.0 0.0 0.00 0.00 0.00 95 1007.3
20260904114545 82 203 0.0 0.0 0.00 0.00 0.00 95 1007.6
20260904114044 82 226 0.0 0.0 0.00 0.00 0.00 95 1007.6
20260904113539 82 220 0.0 0.0 0.00 0.00 0.00 95 1007.2
20260904113038 82 218 0.0 0.0 0.00 0.00 0.00 95 1007.4
20260904112534 82 223 0.0 0.0 0.00 0.00 0.00 95 1007.2
20260904112030 82 201 0.0 1.0 0.00 0.00 0.00 94 1007.3
20260904111525 82 212 0.0 0.0 0.00 0.00 0.00 95 1007.1
20260904111020 82 217 0.0 0.0 0.00 0.00 0.00 94 1007.0
20260904110514 82 216 2.0 2.0 0.00 0.00 0.00 94 1006.9
20260904110010 82 205 0.0 0.0 0.00 0.00 0.00 94 1007.1
20260904105504 82 212 1.0 1.0 0.00 0.00 0.00 94 1007.0
20260904104959 82 203 0.0 1.0 0.00 0.00 0.00 94 1007.0
20260904104454 82 209 0.0 0.0 0.00 0.00 0.00 94 1007.1
20260904103950 82 210 0.0 0.0 0.00 0.00 0.00 94 1006.8
20260904103446 82 215 0.0 0.0 0.00 0.00 0.00 94 1007.0
20260904102942 82 209 0.0 1.0 0.00 0.00 0.00 94 1007.0
20260904102437 82 214 0.0 0.0 0.00 0.00 0.00 93 1007.0
20260904101932 82 202 1.0 1.0 0.00 0.00 0.00 93 1007.0
20260904101430 82 177 1.0 1.0 0.00 0.00 0.00 93 1007.2
20260904100925 82 190 0.0 0.0 0.00 0.00 0.00 94 1006.9
20260904100420 82 213 3.0 4.0 0.00 0.00 0.00 94 1007.1
20260904095914 82 198 2.0 2.0 0.00 0.00 0.00 94 1007.0
20260904095409 82 211 0.0 0.0 0.00 0.00 0.00 94 1006.9
20260904094904 82 203 0.0 1.0 0.00 0.00 0.00 94 1006.9
20260904094359 82 216 0.0 1.0 0.00 0.00 0.00 94 1006.9
20260904093856 82 220 0.0 0.0 0.00 0.00 0.00 93 1006.6
20260904093355 82 224 1.0 2.0 0.00 0.00 0.00 93 1006.9
20260904092851 82 198 2.0 3.0 0.00 0.00 0.00 94 1006.7
20260904092348 82 220 0.0 0.0 0.00 0.00 0.00 94 1006.9
20260904091843 82 213 0.0 0.0 0.00 0.00 0.00 94 1006.8
20260904091339 82 200 0.0 0.0 0.00 0.00 0.00 94 1006.9
20260904090833 82 219 0.0 0.0 0.00 0.00 0.00 94 1006.9
20260904090330 82 205 0.0 0.0 0.00 0.00 0.00 94 1007.0
20260904085824 82 202 2.0 3.0 0.00 0.00 0.00 94 1007.1
20260904085319 83 214 1.0 1.0 0.00 0.00 0.00 94 1007.0
20260904084814 83 219 0.0 0.0 0.00 0.00 0.00 94 1007.0
20260904084310 83 211 0.0 1.0 0.00 0.00 0.00 94 1007.0
20260904083806 83 132 0.0 0.0 0.00 0.00 0.00 94 1007.2
20260904083302 83 210 0.0 0.0 0.00 0.00 0.00 94 1006.9
20260904082757 83 218 0.0 0.0 0.00 0.00 0.00 94 1006.9
20260904082252 83 178 0.0 0.0 0.00 0.00 0.00 94 1007.0
20260904081747 83 175 0.0 0.0 0.00 0.00 0.00 94 1007.0
20260904081242 83 189 0.0 0.0 0.00 0.00 0.00 94 1006.9
20260904080738 83 214 0.0 0.0 0.00 0.00 0.00 94 1007.0
20260904080234 83 188 0.0 1.0 0.00 0.00 0.00 94 1007.0
20260904075730 83 213 0.0 0.0 0.00 0.00 0.00 93 1006.8
20260904075224 83 224 2.0 2.0 0.00 0.00 0.00 93 1006.9
20260904074718 83 178 0.0 0.0 0.00 0.00 0.00 93 1006.9
20260904074213 83 192 0.0 0.0 0.00 0.00 0.00 93 1006.9
20260904073708 83 205 1.0 1.0 0.00 0.00 0.00 93 1006.9
20260904073204 83 208 0.0 1.0 0.00 0.00 0.00 92 1007.1
20260904072659 83 190 2.0 2.0 0.00 0.00 0.00 92 1007.0
20260904072154 83 184 2.0 3.0 0.00 0.00 0.00 92 1007.3
20260904071650 83 206 0.0 0.0 0.00 0.00 0.00 92 1007.1
20260904071145 84 199 0.0 0.0 0.00 0.00 0.00 92 1007.2
20260904070644 84 204 1.0 2.0 0.00 0.00 0.00 92 1007.2
20260904070144 84 175 1.0 2.0 0.00 0.00 0.00 92 1007.2
20260904065638 84 215 0.0 0.0 0.00 0.00 0.00 91 1007.3
20260904065136 84 216 0.0 0.0 0.00 0.00 0.00 91 1007.4
20260904064630 84 190 1.0 1.0 0.00 0.00 0.00 91 1007.3
20260904064125 84 214 0.0 0.0 0.00 0.00 0.00 91 1007.1
20260904063621 84 152 2.0 3.0 0.00 0.00 0.00 91 1007.1
20260904063116 84 108 2.0 3.0 0.00 0.00 0.00 91 1007.0
20260904062613 84 214 0.0 0.0 0.00 0.00 0.00 91 1007.2
20260904062108 84 200 0.0 1.0 0.00 0.00 0.00 91 1007.2
20260904061603 84 204 0.0 1.0 0.00 0.00 0.00 91 1007.2
20260904061100 84 210 1.0 1.0 0.00 0.00 0.00 91 1007.3
20260904060555 84 211 0.0 0.0 0.00 0.00 0.00 91 1007.3
20260904060051 84 171 2.0 3.0 0.00 0.00 0.00 91 1007.5
20260904055546 84 201 1.0 6.0 0.00 0.00 0.00 91 1007.4
20260904055041 84 207 0.0 0.0 0.00 0.00 0.00 91 1007.4
20260904054537 84 196 0.0 1.0 0.00 0.00 0.00 91 1007.6
20260904054033 84 214 0.0 0.0 0.00 0.00 0.00 91 1007.4
20260904053532 84 207 0.0 1.0 0.00 0.00 0.00 90 1007.5
20260904053028 84 189 3.0 6.0 0.00 0.00 0.00 90 1007.5
20260904052524 84 207 0.0 1.0 0.00 0.00 0.00 90 1007.5
20260904052020 84 197 1.0 1.0 0.00 0.00 0.00 90 1007.5
20260904051517 84 209 3.0 6.0 0.00 0.00 0.00 90 1007.6
20260904051015 84 231 0.0 0.0 0.00 0.00 0.00 90 1007.5
20260904050512 84 188 1.0 2.0 0.00 0.00 0.00 90 1007.6
20260904050008 84 212 1.0 1.0 0.00 0.00 0.00 90 1007.4
20260904045502 85 240 1.0 1.0 0.00 0.00 0.00 89 1007.3
20260904044956 85 228 2.0 3.0 0.00 0.00 0.00 89 1007.4
20260904044453 85 197 3.0 6.0 0.00 0.00 0.00 89 1007.3
20260904043949 85 171 2.0 3.0 0.00 0.00 0.00 89 1007.3
20260904043445 85 210 3.0 4.0 0.00 0.00 0.00 89 1007.4
20260904042940 85 162 3.0 4.0 0.00 0.00 0.00 89 1007.3
20260904042437 85 180 1.0 1.0 0.00 0.00 0.00 88 1007.5
20260904041931 85 203 3.0 6.0 0.00 0.00 0.00 88 1007.5
20260904041428 85 192 2.0 3.0 0.00 0.00 0.00 88 1007.5
20260904040924 85 180 2.0 4.0 0.00 0.00 0.00 87 1007.4
20260904040423 85 212 2.0 3.0 0.00 0.00 0.00 87 1007.5
20260904035920 85 192 1.0 1.0 0.00 0.00 0.00 87 1007.6
20260904035415 85 205 0.0 1.0 0.00 0.00 0.00 87 1007.5
20260904034914 85 209 2.0 3.0 0.00 0.00 0.00 87 1007.4
20260904034410 85 186 2.0 2.0 0.00 0.00 0.00 87 1007.7
20260904033905 85 129 2.0 2.0 0.00 0.00 0.00 86 1007.3
20260904033402 85 204 0.0 0.0 0.00 0.00 0.00 86 1007.1
20260904032857 85 193 1.0 2.0 0.00 0.00 0.00 86 1007.1
20260904032352 85 145 1.0 1.0 0.00 0.00 0.00 86 1007.2
20260904031845 85 203 2.0 2.0 0.00 0.00 0.00 86 1007.1